Time,TemperatureF,DewpointF,PressureIn,WindDirection,WindDirectionDegrees,WindSpeedMPH,WindSpeedGustMPH,Humidity,HourlyPrecipIn,Conditions,Clouds,dailyrainin,SolarRadiationWatts/m^2,SoftwareType,DateUTC
2013-12-05 00:00:00,44.0,40.1,30.03,ENE,77,3.5,3.5,86,0.00,-RA,OVC,0.00,0.0,WeatherDisplay:10.37,2013-12-05 00:00:00,
2013-12-05 00:05:00,44.0,40.1,30.02,WNW,283,8.1,8.1,86,0.00,-RA,OVC,0.00,0.0,WeatherDisplay:10.37,2013-12-05 00:05:00,
2013-12-05 00:10:00,43.9,40.3,30.02,SW,228,3.5,3.5,87,0.00,-RA,OVC,0.00,0.0,WeatherDisplay:10.37,2013-12-05 00:10:00,
2013-12-05 00:15:00,43.7,40.4,30.01,East,97,2.3,2.3,88,0.00,-RA,OVC,0.01,0.0,WeatherDisplay:10.37,2013-12-05 00:15:00,
2013-12-05 00:20:00,43.6,40.3,30.01,NE,36,6.0,6.0,88,0.00,-RA,OVC,0.01,0.0,WeatherDisplay:10.37,2013-12-05 00:20:00,
2013-12-05 00:25:00,43.6,40.3,30.00,NNE,18,4.0,4.0,88,0.00,-RA,OVC,0.01,0.0,WeatherDisplay:10.37,2013-12-05 00:25:00,
2013-12-05 00:31:00,43.5,40.5,30.00,NW,320,3.5,3.5,89,0.00,-RA,OVC,0.01,0.0,WeatherDisplay:10.37,2013-12-05 00:31:00,
2013-12-05 00:36:00,43.5,40.5,29.99,North,360,3.5,3.5,89,0.00,-RA,OVC,0.01,0.0,WeatherDisplay:10.37,2013-12-05 00:36:00,
2013-12-05 00:41:00,43.5,40.5,29.98,NE,56,3.0,3.0,89,0.00,-RA,OVC,0.01,0.0,WeatherDisplay:10.37,2013-12-05 00:41:00,
2013-12-05 00:46:00,43.5,40.5,29.98,NNW,341,5.8,5.8,89,0.00,-RA,OVC,0.01,0.0,WeatherDisplay:10.37,2013-12-05 00:46:00,
2013-12-05 00:51:00,43.8,40.8,29.97,SE,125,3.5,3.5,89,0.00,-RA,OVC,0.01,0.0,WeatherDisplay:10.37,2013-12-05 00:51:00,
2013-12-05 00:56:00,44.0,41.0,29.97,NNE,20,3.5,3.5,89,0.00,-RA,OVC,0.01,0.0,WeatherDisplay:10.37,2013-12-05 00:56:00,
2013-12-05 01:01:00,44.2,41.2,29.96,North,351,4.6,4.6,89,0.02,-RA,OVC,0.02,0.0,WeatherDisplay:10.37,2013-12-05 01:01:00,
2013-12-05 01:06:00,44.3,41.3,29.96,WNW,302,4.6,4.6,89,0.02,-RA,OVC,0.02,0.0,WeatherDisplay:10.37,2013-12-05 01:06:00,
2013-12-05 01:11:00,44.6,41.3,29.96,North,5,3.5,3.5,88,0.02,-RA,OVC,0.02,0.0,WeatherDisplay:10.37,2013-12-05 01:11:00,
2013-12-05 01:16:00,44.6,41.6,29.95,South,169,4.6,4.6,89,0.01,-RA,OVC,0.02,0.0,WeatherDisplay:10.37,2013-12-05 01:16:00,
2013-12-05 01:21:00,44.5,41.5,29.94,North,8,11.5,11.5,89,0.01,-RA,OVC,0.02,0.0,WeatherDisplay:10.37,2013-12-05 01:21:00,
2013-12-05 01:26:00,44.5,41.2,29.93,West,260,3.5,3.5,88,0.01,-RA,OVC,0.02,0.0,WeatherDisplay:10.37,2013-12-05 01:26:00,
2013-12-05 01:31:00,44.6,41.3,29.92,NW,312,5.8,5.8,88,0.01,-RA,OVC,0.02,0.0,WeatherDisplay:10.37,2013-12-05 01:31:00,
2013-12-05 01:36:00,44.8,41.5,29.92,NNW,348,8.0,8.0,88,0.01,-RA,OVC,0.02,0.0,WeatherDisplay:10.37,2013-12-05 01:36:00,
2013-12-05 01:41:00,45.0,41.4,29.91,NW,316,5.8,5.8,87,0.01,-RA,OVC,0.02,0.0,WeatherDisplay:10.37,2013-12-05 01:41:00,
2013-12-05 01:46:00,45.1,41.5,29.90,East,91,9.2,9.2,87,0.01,-RA,OVC,0.02,0.0,WeatherDisplay:10.37,2013-12-05 01:46:00,
2013-12-05 01:51:00,45.3,41.7,29.90,West,266,5.8,5.8,87,0.01,-RA,OVC,0.02,0.0,WeatherDisplay:10.37,2013-12-05 01:51:00,
2013-12-05 01:56:00,45.3,41.7,29.89,ENE,75,3.5,3.5,87,0.02,-RA,OVC,0.02,0.0,WeatherDisplay:10.37,2013-12-05 01:56:00,
2013-12-05 02:02:00,45.1,41.5,29.88,WNW,287,4.6,4.6,87,0.01,-RA,OVC,0.02,0.0,WeatherDisplay:10.37,2013-12-05 02:02:00,
2013-12-05 02:07:00,45.0,41.7,29.87,North,1,8.1,8.1,88,0.01,-RA,OVC,0.02,0.0,WeatherDisplay:10.37,2013-12-05 02:07:00,
2013-12-05 02:12:00,44.9,41.6,29.87,NNE,13,3.5,3.5,88,0.01,-RA,OVC,0.02,0.0,WeatherDisplay:10.37,2013-12-05 02:12:00,
2013-12-05 02:17:00,44.8,41.5,29.87,NE,34,3.5,3.5,88,0.01,-RA,OVC,0.02,0.0,WeatherDisplay:10.37,2013-12-05 02:17:00,
2013-12-05 02:22:00,44.7,41.7,29.86,North,353,5.8,5.8,89,0.02,-RA,OVC,0.03,0.0,WeatherDisplay:10.37,2013-12-05 02:22:00,
2013-12-05 02:27:00,44.7,41.7,29.85,WNW,300,4.0,4.0,89,0.02,-RA,OVC,0.04,0.0,WeatherDisplay:10.37,2013-12-05 02:27:00,
2013-12-05 02:32:00,44.7,41.7,29.85,North,353,8.1,8.1,89,0.02,-RA,OVC,0.04,0.0,WeatherDisplay:10.37,2013-12-05 02:32:00,
2013-12-05 02:37:00,44.7,41.7,29.85,NNW,330,6.9,6.9,89,0.02,-RA,OVC,0.05,0.0,WeatherDisplay:10.37,2013-12-05 02:37:00,
2013-12-05 02:42:00,44.9,41.9,29.84,NNE,29,6.9,6.9,89,0.03,-RA,OVC,0.05,0.0,WeatherDisplay:10.37,2013-12-05 02:42:00,
2013-12-05 02:47:00,44.9,41.9,29.83,NNW,340,5.8,5.8,89,0.03,-RA,OVC,0.05,0.0,WeatherDisplay:10.37,2013-12-05 02:47:00,
2013-12-05 02:52:00,45.0,42.0,29.83,SE,143,6.9,6.9,89,0.03,-RA,OVC,0.06,0.0,WeatherDisplay:10.37,2013-12-05 02:52:00,
2013-12-05 02:57:00,45.2,42.2,29.82,East,81,5.8,5.8,89,0.03,-RA,OVC,0.06,0.0,WeatherDisplay:10.37,2013-12-05 02:57:00,
2013-12-05 03:02:00,45.3,42.2,29.81,North,353,5.8,5.8,89,0.04,-RA,OVC,0.06,0.0,WeatherDisplay:10.37,2013-12-05 03:02:00,
2013-12-05 03:08:00,45.3,42.2,29.80,SW,225,4.0,4.0,89,0.04,-RA,OVC,0.06,0.0,WeatherDisplay:10.37,2013-12-05 03:08:00,
2013-12-05 03:12:00,45.4,42.1,29.79,NNE,30,6.9,6.9,88,0.04,-RA,OVC,0.06,0.0,WeatherDisplay:10.37,2013-12-05 03:12:00,
2013-12-05 03:17:00,45.5,42.2,29.79,NE,56,8.1,8.1,88,0.04,-RA,OVC,0.07,0.0,WeatherDisplay:10.37,2013-12-05 03:17:00,
2013-12-05 03:23:00,45.5,42.2,29.78,West,261,5.0,5.0,88,0.04,-RA,OVC,0.07,0.0,WeatherDisplay:10.37,2013-12-05 03:23:00,
2013-12-05 03:28:00,45.5,41.9,29.77,ENE,77,5.8,5.8,87,0.03,-RA,OVC,0.07,0.0,WeatherDisplay:10.37,2013-12-05 03:28:00,
2013-12-05 03:33:00,45.5,41.9,29.77,ENE,68,9.2,9.2,87,0.04,-RA,OVC,0.08,0.0,WeatherDisplay:10.37,2013-12-05 03:33:00,
2013-12-05 03:38:00,45.4,42.1,29.76,SSE,153,6.0,6.0,88,0.04,-RA,OVC,0.08,0.0,WeatherDisplay:10.37,2013-12-05 03:38:00,
2013-12-05 03:43:00,45.4,42.1,29.75,North,5,5.0,5.8,88,0.03,-RA,OVC,0.08,0.0,WeatherDisplay:10.37,2013-12-05 03:43:00,
2013-12-05 03:48:00,45.5,42.2,29.74,NW,309,5.8,5.8,88,0.04,RA,OVC,0.09,0.0,WeatherDisplay:10.37,2013-12-05 03:48:00,
2013-12-05 03:53:00,45.5,42.2,29.74,ENE,60,8.1,8.1,88,0.03,RA,OVC,0.09,0.0,WeatherDisplay:10.37,2013-12-05 03:53:00,
2013-12-05 03:58:00,45.5,42.2,29.73,West,275,6.0,6.0,88,0.03,OVC,,0.09,0.0,WeatherDisplay:10.37,2013-12-05 03:58:00,
2013-12-05 04:03:00,45.5,42.4,29.72,SE,132,6.9,6.9,89,0.03,RA,OVC,0.09,0.0,WeatherDisplay:10.37,2013-12-05 04:03:00,
2013-12-05 04:08:00,45.4,42.3,29.71,NNE,27,3.5,3.5,89,0.03,RA,OVC,0.09,0.0,WeatherDisplay:10.37,2013-12-05 04:08:00,
2013-12-05 04:13:00,45.4,42.3,29.70,North,6,9.0,9.0,89,0.04,RA,OVC,0.10,0.0,WeatherDisplay:10.37,2013-12-05 04:13:00,
2013-12-05 04:18:00,45.6,42.3,29.69,North,351,10.4,10.4,88,0.03,RA,OVC,0.10,0.0,WeatherDisplay:10.37,2013-12-05 04:18:00,
2013-12-05 04:23:00,45.8,42.4,29.68,North,6,10.4,10.4,88,0.03,OVC,,0.10,0.0,WeatherDisplay:10.37,2013-12-05 04:23:00,
2013-12-05 04:28:00,45.9,42.5,29.67,West,269,5.8,5.8,88,0.04,RA,OVC,0.11,0.0,WeatherDisplay:10.37,2013-12-05 04:28:00,
2013-12-05 04:33:00,45.7,42.6,29.67,North,11,5.8,5.8,89,0.03,RA,OVC,0.11,0.0,WeatherDisplay:10.37,2013-12-05 04:33:00,
2013-12-05 04:38:00,45.9,42.5,29.65,East,86,9.2,9.2,88,0.03,OVC,,0.11,0.0,WeatherDisplay:10.37,2013-12-05 04:38:00,
2013-12-05 04:44:00,45.9,42.8,29.64,SSW,193,6.0,6.0,89,0.04,RA,OVC,0.12,0.0,WeatherDisplay:10.37,2013-12-05 04:44:00,
2013-12-05 04:49:00,45.9,42.8,29.63,North,359,9.2,9.2,89,0.03,RA,OVC,0.12,0.0,WeatherDisplay:10.37,2013-12-05 04:49:00,
2013-12-05 04:54:00,46.0,42.9,29.62,NNW,339,8.1,8.1,89,0.04,RA,OVC,0.13,0.0,WeatherDisplay:10.37,2013-12-05 04:54:00,
2013-12-05 04:59:00,46.1,43.0,29.61,NNW,335,5.8,5.8,89,0.04,RA,OVC,0.13,0.0,WeatherDisplay:10.37,2013-12-05 04:59:00,
2013-12-05 05:01:00,46.0,42.9,29.61,ESE,117,5.8,5.8,89,0.04,OVC,,0.13,0.0,WeatherDisplay:10.37,2013-12-05 05:01:00,
2013-12-05 05:02:00,46.1,42.7,29.61,NNW,342,6.0,6.0,88,0.05,RA,OVC,0.13,0.0,WeatherDisplay:10.37,2013-12-05 05:02:00,
2013-12-05 05:03:00,46.0,42.9,29.61,NW,325,5.8,5.8,89,0.04,RA,OVC,0.13,0.0,WeatherDisplay:10.37,2013-12-05 05:03:00,
2013-12-05 05:09:00,46.1,42.7,29.59,NE,39,10.4,10.4,88,0.04,RA,OVC,0.13,0.0,WeatherDisplay:10.37,2013-12-05 05:09:00,
2013-12-05 05:14:00,46.2,42.8,29.58,SSW,210,12.7,12.7,88,0.04,RA,OVC,0.14,0.0,WeatherDisplay:10.37,2013-12-05 05:14:00,
2013-12-05 05:19:00,46.2,42.8,29.58,WSW,241,10.4,10.4,88,0.04,RA,OVC,0.14,0.0,WeatherDisplay:10.37,2013-12-05 05:19:00,
2013-12-05 05:24:00,46.3,42.9,29.57,SW,224,9.0,9.0,88,0.04,OVC,,0.15,0.0,WeatherDisplay:10.37,2013-12-05 05:24:00,
2013-12-05 05:29:00,46.5,43.1,29.57,NNE,33,13.8,13.8,88,0.04,RA,OVC,0.15,0.0,WeatherDisplay:10.37,2013-12-05 05:29:00,
2013-12-05 05:34:00,46.6,43.2,29.56,North,8,11.5,11.5,88,0.04,OVC,,0.15,0.0,WeatherDisplay:10.37,2013-12-05 05:34:00,
2013-12-05 05:39:00,46.7,43.3,29.55,North,353,11.0,11.0,88,0.05,RA,OVC,0.16,0.0,WeatherDisplay:10.37,2013-12-05 05:39:00,
2013-12-05 05:44:00,46.8,43.4,29.54,South,180,15.0,15.0,88,0.04,RA,OVC,0.16,0.0,WeatherDisplay:10.37,2013-12-05 05:44:00,
2013-12-05 05:49:00,46.9,43.5,29.53,NNE,16,11.5,11.5,88,0.04,OVC,,0.16,0.0,WeatherDisplay:10.37,2013-12-05 05:49:00,
2013-12-05 05:54:00,46.8,43.4,29.51,NNE,19,11.5,11.5,88,0.04,RA,OVC,0.17,0.0,WeatherDisplay:10.37,2013-12-05 05:54:00,
2013-12-05 05:59:00,46.9,43.5,29.50,East,85,12.7,12.7,88,0.04,RA,OVC,0.17,0.0,WeatherDisplay:10.37,2013-12-05 05:59:00,
2013-12-05 06:04:00,47.1,43.7,29.50,WNW,302,11.5,11.5,88,0.04,-RA,OVC,0.17,0.0,WeatherDisplay:10.37,2013-12-05 06:04:00,
2013-12-05 06:09:00,47.1,43.7,29.49,ESE,117,10.4,10.4,88,0.04,-RA,OVC,0.17,0.0,WeatherDisplay:10.37,2013-12-05 06:09:00,
2013-12-05 06:14:00,47.1,43.7,29.49,NNE,33,13.8,13.8,88,0.04,-RA,OVC,0.18,0.0,WeatherDisplay:10.37,2013-12-05 06:14:00,
2013-12-05 06:19:00,47.1,43.7,29.47,North,6,8.1,8.1,88,0.04,-RA,OVC,0.18,0.0,WeatherDisplay:10.37,2013-12-05 06:19:00,
2013-12-05 06:24:00,47.1,43.7,29.45,NE,37,10.4,10.4,88,0.04,-RA,OVC,0.19,0.0,WeatherDisplay:10.37,2013-12-05 06:24:00,
2013-12-05 06:29:00,47.3,44.2,29.44,WNW,293,11.0,11.0,89,0.05,-RA,OVC,0.20,0.0,WeatherDisplay:10.37,2013-12-05 06:29:00,
2013-12-05 06:34:00,47.3,44.2,29.43,SW,219,7.0,7.0,89,0.05,RA,OVC,0.20,0.0,WeatherDisplay:10.37,2013-12-05 06:34:00,
2013-12-05 06:39:00,47.4,44.3,29.44,ENE,72,13.8,13.8,89,0.06,RA,OVC,0.21,0.0,WeatherDisplay:10.37,2013-12-05 06:39:00,
2013-12-05 06:44:00,47.4,44.3,29.44,NNE,33,9.2,9.2,89,0.07,RA,OVC,0.23,0.0,WeatherDisplay:10.37,2013-12-05 06:44:00,
2013-12-05 06:49:00,47.3,44.5,29.44,SW,235,10.4,10.4,90,0.09,RA,OVC,0.24,0.0,WeatherDisplay:10.37,2013-12-05 06:49:00,
2013-12-05 06:54:00,47.2,44.7,29.44,WNW,293,10.4,10.4,91,0.09,RA,OVC,0.26,0.0,WeatherDisplay:10.37,2013-12-05 06:54:00,
2013-12-05 06:59:00,47.1,44.3,29.43,NNW,345,11.5,11.5,90,0.11,RA,OVC,0.28,0.0,WeatherDisplay:10.37,2013-12-05 06:59:00,
2013-12-05 07:04:00,46.8,43.7,29.43,WNW,300,12.7,12.7,89,0.13,RA,OVC,0.30,0.0,WeatherDisplay:10.37,2013-12-05 07:04:00,
2013-12-05 07:09:00,46.3,43.5,29.41,NNW,339,8.1,8.1,90,0.15,RA,OVC,0.32,0.0,WeatherDisplay:10.37,2013-12-05 07:09:00,
2013-12-05 07:14:00,46.4,44.2,29.40,North,360,10.0,10.0,92,0.14,RA,OVC,0.32,0.0,WeatherDisplay:10.37,2013-12-05 07:14:00,
2013-12-05 07:19:00,47.0,44.5,29.40,WNW,300,10.4,10.4,91,0.15,RA,OVC,0.33,0.0,WeatherDisplay:10.37,2013-12-05 07:19:00,
2013-12-05 07:24:00,47.6,43.9,29.39,North,4,11.5,11.5,87,0.14,RA,OVC,0.33,0.0,WeatherDisplay:10.37,2013-12-05 07:24:00,
2013-12-05 07:29:00,48.0,43.1,29.39,ENE,77,13.8,13.8,83,0.13,BKN,OVC,0.33,0.0,WeatherDisplay:10.37,2013-12-05 07:29:00,
2013-12-05 07:34:00,48.4,42.5,29.38,SSE,156,18.4,18.4,80,0.13,BKN,OVC,0.33,0.0,WeatherDisplay:10.37,2013-12-05 07:34:00,
2013-12-05 07:39:00,48.7,42.5,29.39,North,11,9.2,9.2,79,0.12,BKN,OVC,0.33,0.0,WeatherDisplay:10.37,2013-12-05 07:39:00,
2013-12-05 07:44:00,47.6,42.1,29.42,NW,305,24.2,24.2,81,0.11,RA,OVC,0.34,0.0,WeatherDisplay:10.37,2013-12-05 07:44:00,
2013-12-05 07:49:00,44.7,40.5,29.41,NNW,336,21.9,21.9,85,0.13,RA,OVC,0.38,0.0,WeatherDisplay:10.37,2013-12-05 07:49:00,
2013-12-05 07:54:00,44.5,40.6,29.42,North,352,19.6,19.6,86,0.12,RA,OVC,0.38,0.0,WeatherDisplay:10.37,2013-12-05 07:54:00,
2013-12-05 08:00:00,45.0,40.8,29.43,NNW,336,19.6,19.6,85,0.10,BKN,OVC,0.38,0.0,WeatherDisplay:10.37,2013-12-05 08:00:00,
2013-12-05 08:05:00,45.2,40.0,29.43,NW,314,21.9,21.9,82,0.08,BKN,OVC,0.38,0.0,WeatherDisplay:10.37,2013-12-05 08:05:00,
2013-12-05 08:10:00,44.9,38.8,29.45,NW,314,21.9,21.9,79,0.06,BKN,OVC,0.38,0.0,WeatherDisplay:10.37,2013-12-05 08:10:00,
2013-12-05 08:15:00,44.4,38.6,29.46,NW,321,22.0,22.0,80,0.06,BKN,OVC,0.38,0.0,WeatherDisplay:10.37,2013-12-05 08:15:00,
2013-12-05 08:20:00,43.8,38.7,29.47,WNW,301,17.3,17.3,82,0.05,BKN,OVC,0.38,0.0,WeatherDisplay:10.37,2013-12-05 08:20:00,
2013-12-05 08:25:00,43.3,38.5,29.48,NW,307,10.0,20.0,83,0.00,BKN,OVC,0.38,0.0,WeatherDisplay:10.37,2013-12-05 08:25:00,
2013-12-05 08:30:00,43.2,38.1,29.49,North,356,16.1,16.1,82,0.05,BKN,OVC,0.38,0.0,WeatherDisplay:10.37,2013-12-05 08:30:00,
2013-12-05 08:35:00,43.3,36.9,29.49,NW,315,9.0,15.0,78,0.00,BKN,OVC,0.38,0.0,WeatherDisplay:10.37,2013-12-05 08:35:00,
2013-12-05 08:40:00,43.2,36.8,29.49,NNW,330,9.2,9.2,78,0.05,BKN,OVC,0.38,0.0,WeatherDisplay:10.37,2013-12-05 08:40:00,
2013-12-05 08:45:00,43.1,37.1,29.50,NW,323,9.0,15.0,79,0.00,BKN,OVC,0.38,0.0,WeatherDisplay:10.37,2013-12-05 08:45:00,
2013-12-05 08:50:00,43.1,37.0,29.50,WNW,298,8.0,17.0,79,0.00,BKN,OVC,0.38,0.0,WeatherDisplay:10.37,2013-12-05 08:50:00,
2013-12-05 08:55:00,43.1,36.0,29.51,WNW,291,13.8,13.8,76,0.00,BKN,OVC,0.38,0.0,WeatherDisplay:10.37,2013-12-05 08:55:00,
2013-12-05 09:00:00,43.1,35.7,29.52,WNW,303,9.0,14.0,75,0.00,BKN,OVC,0.38,0.0,WeatherDisplay:10.37,2013-12-05 09:00:00,
2013-12-05 09:05:00,43.3,35.9,29.52,NNW,328,12.7,12.7,75,0.00,BKN,OVC,0.38,0.0,WeatherDisplay:10.37,2013-12-05 09:05:00,
2013-12-05 09:10:00,43.3,35.9,29.52,NW,304,13.8,13.8,75,0.00,BKN,OVC,0.38,0.0,WeatherDisplay:10.37,2013-12-05 09:10:00,
2013-12-05 09:15:00,43.1,35.4,29.54,WNW,294,13.8,13.8,74,0.00,BKN,OVC,0.38,0.0,WeatherDisplay:10.37,2013-12-05 09:15:00,
2013-12-05 09:20:00,43.0,36.6,29.54,West,269,9.0,9.0,78,0.00,BKN,OVC,0.38,0.0,WeatherDisplay:10.37,2013-12-05 09:20:00,
2013-12-05 09:25:00,42.2,36.8,29.55,WNW,300,16.1,16.1,81,0.00,BKN,OVC,0.38,0.0,WeatherDisplay:10.37,2013-12-05 09:25:00,
2013-12-05 09:38:00,41.5,35.8,29.56,NE,34,26.5,26.5,80,0.00,BKN,OVC,0.38,0.0,WeatherDisplay:10.37,2013-12-05 09:38:00,
2013-12-05 09:43:00,41.3,35.9,29.56,NNE,18,11.5,11.5,81,0.00,BKN,OVC,0.38,0.0,WeatherDisplay:10.37,2013-12-05 09:43:00,
2013-12-05 09:48:00,41.1,36.0,29.57,NNW,347,11.5,11.5,82,0.00,-RA,OVC,0.38,0.0,WeatherDisplay:10.37,2013-12-05 09:48:00,
2013-12-05 09:53:00,41.3,36.2,29.58,NNW,335,8.1,8.1,82,0.00,-RA,OVC,0.38,0.0,WeatherDisplay:10.37,2013-12-05 09:53:00,
2013-12-05 09:58:00,41.2,36.1,29.59,WNW,297,13.8,13.8,82,0.01,-RA,OVC,0.39,0.0,WeatherDisplay:10.37,2013-12-05 09:58:00,
2013-12-05 10:03:00,41.1,36.6,29.60,WNW,296,9.2,9.2,84,0.02,-RA,OVC,0.39,0.0,WeatherDisplay:10.37,2013-12-05 10:03:00,
2013-12-05 10:08:00,40.6,36.7,29.61,NNW,328,10.4,10.4,86,0.02,-RA,OVC,0.39,0.0,WeatherDisplay:10.37,2013-12-05 10:08:00,
2013-12-05 10:13:00,40.2,36.6,29.61,NW,319,10.4,10.4,87,0.02,-RA,OVC,0.40,0.0,WeatherDisplay:10.37,2013-12-05 10:13:00,
2013-12-05 10:18:00,40.1,36.8,29.62,NNW,333,9.2,9.2,88,0.02,-RA,OVC,0.40,0.0,WeatherDisplay:10.37,2013-12-05 10:18:00,
2013-12-05 10:23:00,40.2,36.9,29.62,NW,321,6.9,6.9,88,0.02,-RA,OVC,0.40,0.0,WeatherDisplay:10.37,2013-12-05 10:23:00,
2013-12-05 10:28:00,40.3,37.0,29.63,NW,317,4.6,4.6,88,0.02,-RA,OVC,0.40,0.0,WeatherDisplay:10.37,2013-12-05 10:28:00,
2013-12-05 10:33:00,40.2,36.9,29.63,NW,311,6.9,6.9,88,0.02,-RA,OVC,0.40,0.0,WeatherDisplay:10.37,2013-12-05 10:33:00,
2013-12-05 10:38:00,40.2,37.2,29.64,NW,323,3.5,3.5,89,0.02,-RA,OVC,0.40,0.0,WeatherDisplay:10.37,2013-12-05 10:38:00,
2013-12-05 10:43:00,40.3,37.0,29.64,WNW,283,8.0,8.0,88,0.02,-RA,OVC,0.40,0.0,WeatherDisplay:10.37,2013-12-05 10:43:00,
2013-12-05 10:48:00,40.4,36.2,29.65,NNW,330,8.1,8.1,85,0.02,BKN,OVC,0.40,0.0,WeatherDisplay:10.37,2013-12-05 10:48:00,
2013-12-05 10:53:00,40.7,35.9,29.66,NW,307,6.9,6.9,83,0.02,BKN,OVC,0.40,0.0,WeatherDisplay:10.37,2013-12-05 10:53:00,
2013-12-05 10:58:00,40.8,35.4,29.67,NW,315,6.9,6.9,81,0.02,BKN,OVC,0.40,0.0,WeatherDisplay:10.37,2013-12-05 10:58:00,
2013-12-05 11:03:00,40.9,35.5,29.67,West,259,3.5,3.5,81,0.01,BKN,OVC,0.40,0.0,WeatherDisplay:10.37,2013-12-05 11:03:00,
2013-12-05 11:08:00,40.8,34.8,29.68,NW,316,4.6,4.6,79,0.01,BKN,OVC,0.40,0.0,WeatherDisplay:10.37,2013-12-05 11:08:00,
2013-12-05 11:13:00,41.2,34.5,29.70,NW,305,6.9,6.9,77,0.00,BKN,OVC,0.40,0.0,WeatherDisplay:10.37,2013-12-05 11:13:00,
2013-12-05 11:18:00,41.5,34.5,29.72,WNW,292,11.5,11.5,76,0.00,BKN,OVC,0.40,0.0,WeatherDisplay:10.37,2013-12-05 11:18:00,
2013-12-05 11:23:00,39.0,33.7,29.73,NW,321,10.4,10.4,81,0.01,RA,OVC,0.41,0.0,WeatherDisplay:10.37,2013-12-05 11:23:00,
2013-12-05 11:28:00,38.0,33.3,29.73,WNW,294,10.4,10.4,83,0.01,RA,OVC,0.41,0.0,WeatherDisplay:10.37,2013-12-05 11:28:00,
2013-12-05 11:33:00,38.0,33.6,29.74,NW,317,6.9,6.9,84,0.01,FEW,OVC,0.41,0.0,WeatherDisplay:10.37,2013-12-05 11:33:00,
2013-12-05 11:38:00,37.8,33.7,29.74,WNW,293,8.1,8.1,85,0.02,RA,OVC,0.42,0.0,WeatherDisplay:10.37,2013-12-05 11:38:00,
2013-12-05 11:43:00,37.9,33.8,29.75,WNW,292,5.8,5.8,85,0.02,RA,OVC,0.42,0.0,WeatherDisplay:10.37,2013-12-05 11:43:00,
2013-12-05 11:48:00,37.7,33.0,29.75,WNW,302,8.1,8.1,83,0.02,FEW,OVC,0.42,0.0,WeatherDisplay:10.37,2013-12-05 11:48:00,
2013-12-05 11:53:00,37.9,33.5,29.76,NW,307,5.0,5.0,84,0.02,FEW,OVC,0.42,0.0,WeatherDisplay:10.37,2013-12-05 11:53:00,
2013-12-05 11:58:00,38.4,34.0,29.77,WNW,297,5.0,5.0,84,0.02,FEW,OVC,0.42,0.0,WeatherDisplay:10.37,2013-12-05 11:58:00,
2013-12-05 12:03:00,39.0,33.7,29.77,NW,317,6.9,6.9,81,0.02,SCT,OVC,0.42,0.0,WeatherDisplay:10.37,2013-12-05 12:03:00,
2013-12-05 12:08:00,39.5,33.8,29.78,NW,316,3.5,3.5,80,0.02,SCT,OVC,0.42,0.0,WeatherDisplay:10.37,2013-12-05 12:08:00,
2013-12-05 12:13:00,39.8,33.8,29.79,NW,319,3.5,3.5,79,0.02,SCT,OVC,0.42,0.0,WeatherDisplay:10.37,2013-12-05 12:13:00,
2013-12-05 12:18:00,39.7,32.1,29.80,NW,314,11.5,11.5,74,0.02,SCT,OVC,0.42,0.0,WeatherDisplay:10.37,2013-12-05 12:18:00,
2013-12-05 12:23:00,38.5,32.2,29.81,WNW,290,11.5,11.5,78,0.01,SCT,OVC,0.42,0.0,WeatherDisplay:10.37,2013-12-05 12:23:00,
2013-12-05 12:28:00,37.2,32.2,29.81,NW,308,9.2,9.2,82,0.01,SCT,OVC,0.42,0.0,WeatherDisplay:10.37,2013-12-05 12:28:00,
2013-12-05 12:33:00,36.2,31.8,29.81,NNW,329,15.0,15.0,84,0.01,FEW,OVC,0.42,0.0,WeatherDisplay:10.37,2013-12-05 12:33:00,
2013-12-05 12:38:00,36.3,31.3,29.81,NNW,340,15.0,15.0,82,0.00,FEW,OVC,0.42,0.0,WeatherDisplay:10.37,2013-12-05 12:38:00,
2013-12-05 12:43:00,36.3,31.9,29.83,NW,309,9.2,9.2,84,0.01,RA,OVC,0.43,0.0,WeatherDisplay:10.37,2013-12-05 12:43:00,
2013-12-05 12:48:00,36.3,32.2,29.83,WNW,297,8.1,8.1,85,0.01,RA,OVC,0.43,0.0,WeatherDisplay:10.37,2013-12-05 12:48:00,
2013-12-05 12:53:00,36.5,32.1,29.84,WNW,284,10.4,10.4,84,0.01,FEW,OVC,0.43,0.0,WeatherDisplay:10.37,2013-12-05 12:53:00,
2013-12-05 12:58:00,36.3,32.2,29.85,WNW,284,10.4,10.4,85,0.01,FEW,OVC,0.43,0.0,WeatherDisplay:10.37,2013-12-05 12:58:00,
2013-12-05 13:03:00,35.2,31.7,29.84,NW,304,5.8,5.8,87,0.01,SCT,OVC,0.43,0.0,WeatherDisplay:10.37,2013-12-05 13:03:00,
2013-12-05 13:08:00,34.8,31.6,29.84,NW,316,5.8,5.8,88,0.01,SCT,OVC,0.43,0.0,WeatherDisplay:10.37,2013-12-05 13:08:00,
2013-12-05 13:13:00,34.8,31.6,29.85,NNW,328,3.5,3.5,88,0.01,SCT,OVC,0.43,0.0,WeatherDisplay:10.37,2013-12-05 13:13:00,
2013-12-05 13:18:00,35.0,31.8,29.86,WNW,287,3.0,3.0,88,0.01,SCT,OVC,0.43,0.0,WeatherDisplay:10.37,2013-12-05 13:18:00,
2013-12-05 13:23:00,35.5,31.4,29.86,NW,317,5.8,5.8,85,0.01,SCT,OVC,0.43,0.0,WeatherDisplay:10.37,2013-12-05 13:23:00,
2013-12-05 13:28:00,35.9,32.1,29.86,NW,307,3.5,3.5,86,0.02,RA,OVC,0.43,0.0,WeatherDisplay:10.37,2013-12-05 13:28:00,
2013-12-05 13:33:00,36.2,32.1,29.87,NNW,341,3.5,3.5,85,0.02,RA,OVC,0.43,0.0,WeatherDisplay:10.37,2013-12-05 13:33:00,
2013-12-05 13:38:00,36.7,32.3,29.87,NW,311,3.5,3.5,84,0.02,SCT,OVC,0.43,0.0,WeatherDisplay:10.37,2013-12-05 13:38:00,
2013-12-05 13:43:00,37.1,31.8,29.88,WNW,302,9.2,9.2,81,0.02,RA,OVC,0.44,0.0,WeatherDisplay:10.37,2013-12-05 13:43:00,
2013-12-05 13:48:00,37.4,31.5,29.88,North,351,5.0,5.0,79,0.02,RA,OVC,0.44,0.0,WeatherDisplay:10.37,2013-12-05 13:48:00,
2013-12-05 13:53:00,37.5,30.9,29.88,NW,314,8.1,8.1,77,0.02,SCT,OVC,0.44,0.0,WeatherDisplay:10.37,2013-12-05 13:53:00,
2013-12-05 13:58:00,37.5,30.6,29.89,WNW,300,4.6,4.6,76,0.02,SCT,OVC,0.44,0.0,WeatherDisplay:10.37,2013-12-05 13:58:00,
2013-12-05 14:03:00,37.4,30.5,29.89,NW,325,5.8,5.8,76,0.02,FEW,OVC,0.44,0.0,WeatherDisplay:10.37,2013-12-05 14:03:00,
2013-12-05 14:08:00,37.3,30.4,29.89,WNW,293,3.5,3.5,76,0.02,FEW,OVC,0.44,0.0,WeatherDisplay:10.37,2013-12-05 14:08:00,
2013-12-05 14:13:00,37.2,29.0,29.90,NW,325,6.9,6.9,72,0.02,FEW,OVC,0.44,0.0,WeatherDisplay:10.37,2013-12-05 14:13:00,
2013-12-05 14:18:00,37.2,28.3,29.90,NNW,332,5.8,5.8,70,0.02,FEW,OVC,0.44,0.0,WeatherDisplay:10.37,2013-12-05 14:18:00,
2013-12-05 14:23:00,37.2,28.3,29.90,NW,316,10.4,10.4,70,0.02,FEW,OVC,0.44,0.0,WeatherDisplay:10.37,2013-12-05 14:23:00,
2013-12-05 14:28:00,37.2,28.0,29.91,WNW,300,4.6,4.6,69,0.01,FEW,OVC,0.44,0.0,WeatherDisplay:10.37,2013-12-05 14:28:00,
2013-12-05 14:33:00,37.2,28.0,29.91,NW,305,7.0,7.0,69,0.01,FEW,OVC,0.44,0.0,WeatherDisplay:10.37,2013-12-05 14:33:00,
2013-12-05 14:39:00,37.3,27.7,29.91,NW,310,9.2,9.2,68,0.01,FEW,OVC,0.44,0.0,WeatherDisplay:10.37,2013-12-05 14:39:00,
2013-12-05 14:44:00,37.3,27.3,29.91,WNW,300,5.0,5.0,67,0.00,FEW,OVC,0.44,0.0,WeatherDisplay:10.37,2013-12-05 14:44:00,
2013-12-05 14:49:00,37.2,27.2,29.91,NW,304,6.9,6.9,67,0.00,FEW,OVC,0.44,0.0,WeatherDisplay:10.37,2013-12-05 14:49:00,
2013-12-05 14:54:00,37.1,26.8,29.91,North,355,8.1,8.1,66,0.00,FEW,OVC,0.44,0.0,WeatherDisplay:10.37,2013-12-05 14:54:00,
2013-12-05 14:59:00,37.2,26.1,29.92,NW,319,5.8,5.8,64,0.00,FEW,OVC,0.44,0.0,WeatherDisplay:10.37,2013-12-05 14:59:00,
2013-12-05 15:04:00,37.2,26.1,29.92,WNW,295,5.8,5.8,64,0.00,FEW,OVC,0.44,0.0,WeatherDisplay:10.37,2013-12-05 15:04:00,
2013-12-05 15:09:00,37.2,26.1,29.92,NW,314,8.1,8.1,64,0.00,FEW,OVC,0.44,0.0,WeatherDisplay:10.37,2013-12-05 15:09:00,
2013-12-05 15:14:00,37.3,25.1,29.93,North,6,9.2,9.2,61,0.00,FEW,OVC,0.44,0.0,WeatherDisplay:10.37,2013-12-05 15:14:00,
2013-12-05 15:19:00,37.1,26.0,29.93,NW,309,3.5,3.5,64,0.00,FEW,OVC,0.44,0.0,WeatherDisplay:10.37,2013-12-05 15:19:00,
2013-12-05 15:24:00,36.8,26.1,29.93,WNW,298,4.6,4.6,65,0.00,FEW,OVC,0.44,0.0,WeatherDisplay:10.37,2013-12-05 15:24:00,
2013-12-05 15:29:00,36.5,25.8,29.93,WNW,294,6.9,6.9,65,0.00,FEW,OVC,0.44,0.0,WeatherDisplay:10.37,2013-12-05 15:29:00,
2013-12-05 15:34:00,36.3,26.4,29.94,NW,310,3.5,3.5,67,0.00,FEW,OVC,0.44,0.0,WeatherDisplay:10.37,2013-12-05 15:34:00,
2013-12-05 15:39:00,36.0,26.5,29.95,West,278,3.5,3.5,68,0.00,FEW,OVC,0.44,0.0,WeatherDisplay:10.37,2013-12-05 15:39:00,
2013-12-05 15:44:00,35.7,26.9,29.94,NNW,328,4.0,4.0,70,0.00,FEW,OVC,0.44,0.0,WeatherDisplay:10.37,2013-12-05 15:44:00,
2013-12-05 15:50:00,35.7,26.2,29.95,North,11,4.6,4.6,68,0.00,CLR,OVC,0.44,0.0,WeatherDisplay:10.37,2013-12-05 15:50:00,
2013-12-05 15:55:00,35.7,26.2,29.95,WNW,302,3.0,7.0,68,0.00,CLR,OVC,0.44,0.0,WeatherDisplay:10.37,2013-12-05 15:55:00,
2013-12-05 15:59:00,35.7,26.5,29.95,NW,311,4.6,4.6,69,0.00,CLR,OVC,0.44,0.0,WeatherDisplay:10.37,2013-12-05 15:59:00,
2013-12-05 16:05:00,35.5,26.0,29.96,WNW,296,3.5,3.5,68,0.00,CLR,OVC,0.44,0.0,WeatherDisplay:10.37,2013-12-05 16:05:00,
2013-12-05 16:10:00,35.5,26.0,29.96,NW,310,2.0,6.0,68,0.00,CLR,OVC,0.44,0.0,WeatherDisplay:10.37,2013-12-05 16:10:00,
2013-12-05 16:14:00,35.6,26.1,29.96,NW,315,5.8,5.8,68,0.00,CLR,OVC,0.44,0.0,WeatherDisplay:10.37,2013-12-05 16:14:00,
2013-12-05 16:20:00,35.5,26.0,29.96,NW,321,3.5,3.5,68,0.00,FEW,OVC,0.44,0.0,WeatherDisplay:10.37,2013-12-05 16:20:00,
2013-12-05 16:25:00,35.3,26.5,29.97,NW,312,2.3,2.3,70,0.00,FEW,OVC,0.44,0.0,WeatherDisplay:10.37,2013-12-05 16:25:00,
2013-12-05 16:30:00,35.2,26.0,29.97,NW,309,1.0,3.0,69,0.00,FEW,OVC,0.44,0.0,WeatherDisplay:10.37,2013-12-05 16:30:00,
2013-12-05 16:35:00,35.1,26.3,29.97,NW,310,0.0,2.0,70,0.00,FEW,OVC,0.44,0.0,WeatherDisplay:10.37,2013-12-05 16:35:00,
2013-12-05 16:39:00,34.8,26.7,29.97,West,273,1.2,0.0,72,0.00,FEW,OVC,0.44,0.0,WeatherDisplay:10.37,2013-12-05 16:39:00,
2013-12-05 16:45:00,34.3,26.5,29.98,NW,308,0.0,0.0,73,0.00,FEW,OVC,0.44,0.0,WeatherDisplay:10.37,2013-12-05 16:45:00,
2013-12-05 16:50:00,34.0,26.9,29.98,NNW,342,0.0,1.0,75,0.00,FEW,OVC,0.44,0.0,WeatherDisplay:10.37,2013-12-05 16:50:00,
2013-12-05 16:54:00,33.7,26.6,29.98,NE,46,0.0,0.0,75,0.00,FEW,OVC,0.44,0.0,WeatherDisplay:10.37,2013-12-05 16:54:00,
2013-12-05 17:00:00,33.3,26.5,29.98,SE,134,1.2,1.2,76,0.00,FEW,OVC,0.44,0.0,WeatherDisplay:10.37,2013-12-05 17:00:00,
2013-12-05 17:05:00,33.1,26.3,29.98,East,90,0.0,1.0,76,0.00,CLR,OVC,0.44,0.0,WeatherDisplay:10.37,2013-12-05 17:05:00,
2013-12-05 17:10:00,33.1,26.7,29.98,WNW,301,1.2,0.0,77,0.00,CLR,OVC,0.44,0.0,WeatherDisplay:10.37,2013-12-05 17:10:00,
2013-12-05 17:15:00,33.2,26.8,29.99,NNW,335,2.3,2.3,77,0.00,CLR,OVC,0.44,0.0,WeatherDisplay:10.37,2013-12-05 17:15:00,
2013-12-05 17:20:00,33.3,26.9,29.99,WNW,301,2.3,2.3,77,0.00,CLR,OVC,0.44,0.0,WeatherDisplay:10.37,2013-12-05 17:20:00,
2013-12-05 17:25:00,32.9,26.8,29.99,WNW,300,1.2,1.2,78,0.00,CLR,OVC,0.44,0.0,WeatherDisplay:10.37,2013-12-05 17:25:00,
2013-12-05 17:30:00,32.5,26.7,29.99,WNW,283,2.0,2.0,79,0.00,CLR,OVC,0.44,0.0,WeatherDisplay:10.37,2013-12-05 17:30:00,
2013-12-05 17:35:00,32.4,26.9,29.99,NW,309,1.0,0.0,80,0.00,CLR,OVC,0.44,0.0,WeatherDisplay:10.37,2013-12-05 17:35:00,
2013-12-05 17:40:00,32.3,27.1,29.99,WNW,302,1.2,1.2,81,0.00,CLR,OVC,0.44,0.0,WeatherDisplay:10.37,2013-12-05 17:40:00,
2013-12-05 17:45:00,32.1,27.2,29.99,NW,305,2.3,2.3,82,0.00,CLR,OVC,0.44,0.0,WeatherDisplay:10.37,2013-12-05 17:45:00,
2013-12-05 17:50:00,32.1,27.2,29.99,WNW,297,1.2,1.2,82,0.00,CLR,OVC,0.44,0.0,WeatherDisplay:10.37,2013-12-05 17:50:00,
2013-12-05 17:55:00,31.8,27.2,30.00,WNW,297,1.2,1.2,83,0.00,CLR,OVC,0.44,0.0,WeatherDisplay:10.37,2013-12-05 17:55:00,
2013-12-05 18:00:00,31.5,26.9,30.00,WNW,299,1.2,1.2,83,0.00,CLR,OVC,0.44,0.0,WeatherDisplay:10.37,2013-12-05 18:00:00,
2013-12-05 18:05:00,31.4,27.1,30.00,WNW,287,1.2,1.2,84,0.00,CLR,OVC,0.44,0.0,WeatherDisplay:10.37,2013-12-05 18:05:00,
2013-12-05 18:10:00,31.4,27.1,30.01,NW,314,2.3,2.3,84,0.00,CLR,OVC,0.44,0.0,WeatherDisplay:10.37,2013-12-05 18:10:00,
2013-12-05 18:15:00,31.4,27.1,30.01,NW,309,1.2,1.2,84,0.00,CLR,OVC,0.44,0.0,WeatherDisplay:10.37,2013-12-05 18:15:00,
2013-12-05 18:20:00,31.2,26.9,30.02,NW,306,2.0,2.0,84,0.00,CLR,OVC,0.44,0.0,WeatherDisplay:10.37,2013-12-05 18:20:00,
2013-12-05 18:25:00,31.3,27.0,30.02,NW,310,1.2,1.2,84,0.00,CLR,OVC,0.44,0.0,WeatherDisplay:10.37,2013-12-05 18:25:00,
2013-12-05 18:30:00,31.3,26.7,30.02,WNW,301,1.2,1.2,83,0.00,CLR,OVC,0.44,0.0,WeatherDisplay:10.37,2013-12-05 18:30:00,
2013-12-05 18:35:00,31.0,26.4,30.02,NW,307,1.2,1.2,83,0.00,CLR,OVC,0.44,0.0,WeatherDisplay:10.37,2013-12-05 18:35:00,
2013-12-05 18:40:00,30.9,26.6,30.02,NW,306,1.0,1.0,84,0.00,CLR,OVC,0.44,0.0,WeatherDisplay:10.37,2013-12-05 18:40:00,
2013-12-05 18:45:00,30.8,26.5,30.02,WNW,301,1.2,1.2,84,0.00,CLR,OVC,0.44,0.0,WeatherDisplay:10.37,2013-12-05 18:45:00,
2013-12-05 18:50:00,30.7,26.4,30.02,WNW,301,0.0,0.0,84,0.00,CLR,OVC,0.44,0.0,WeatherDisplay:10.37,2013-12-05 18:50:00,
2013-12-05 18:55:00,30.6,26.3,30.02,WNW,301,0.0,0.0,84,0.00,CLR,OVC,0.44,0.0,WeatherDisplay:10.37,2013-12-05 18:55:00,
2013-12-05 19:00:00,30.6,26.6,30.02,WNW,300,0.0,0.0,85,0.00,CLR,OVC,0.44,0.0,WeatherDisplay:10.37,2013-12-05 19:00:00,
2013-12-05 19:05:00,30.6,26.6,30.02,WNW,301,0.0,0.0,85,0.00,CLR,OVC,0.44,0.0,WeatherDisplay:10.37,2013-12-05 19:05:00,
2013-12-05 19:11:00,30.4,26.4,30.03,WNW,301,0.0,0.0,85,0.00,CLR,OVC,0.44,0.0,WeatherDisplay:10.37,2013-12-05 19:11:00,
2013-12-05 19:16:00,30.3,26.6,30.03,WNW,301,0.0,0.0,86,0.00,CLR,OVC,0.44,0.0,WeatherDisplay:10.37,2013-12-05 19:16:00,
2013-12-05 19:21:00,30.1,26.4,30.03,WNW,300,0.0,0.0,86,0.00,CLR,OVC,0.44,0.0,WeatherDisplay:10.37,2013-12-05 19:21:00,
2013-12-05 19:25:00,30.0,26.3,30.03,WNW,301,0.0,0.0,86,0.00,CLR,OVC,0.44,0.0,WeatherDisplay:10.37,2013-12-05 19:25:00,
2013-12-05 19:31:00,29.9,26.5,30.04,WNW,301,0.0,0.0,87,0.00,CLR,OVC,0.44,0.0,WeatherDisplay:10.37,2013-12-05 19:31:00,
2013-12-05 19:35:00,29.9,26.5,30.04,WNW,301,0.0,0.0,87,0.00,CLR,OVC,0.44,0.0,WeatherDisplay:10.37,2013-12-05 19:35:00,
2013-12-05 19:40:00,30.0,26.6,30.04,WNW,301,0.0,0.0,87,0.00,CLR,OVC,0.44,0.0,WeatherDisplay:10.37,2013-12-05 19:40:00,
2013-12-05 19:45:00,30.1,26.7,30.04,WNW,301,0.0,0.0,87,0.00,CLR,OVC,0.44,0.0,WeatherDisplay:10.37,2013-12-05 19:45:00,
2013-12-05 19:50:00,30.2,26.8,30.04,WNW,301,0.0,0.0,87,0.00,CLR,OVC,0.44,0.0,WeatherDisplay:10.37,2013-12-05 19:50:00,
2013-12-05 19:55:00,30.1,26.7,30.04,WNW,300,0.0,0.0,87,0.00,CLR,OVC,0.44,0.0,WeatherDisplay:10.37,2013-12-05 19:55:00,
2013-12-05 20:00:00,30.0,26.6,30.05,WNW,300,0.0,0.0,87,0.00,CLR,OVC,0.44,0.0,WeatherDisplay:10.37,2013-12-05 20:00:00,
2013-12-05 20:06:00,30.1,27.0,30.05,WSW,243,1.2,0.0,88,0.00,CLR,OVC,0.44,0.0,WeatherDisplay:10.37,2013-12-05 20:06:00,
2013-12-05 20:11:00,30.2,27.1,30.05,WNW,285,1.2,1.2,88,0.00,CLR,OVC,0.44,0.0,WeatherDisplay:10.37,2013-12-05 20:11:00,
2013-12-05 20:16:00,30.1,26.7,30.06,WNW,285,0.0,0.0,87,0.00,CLR,OVC,0.44,0.0,WeatherDisplay:10.37,2013-12-05 20:16:00,
2013-12-05 20:21:00,30.1,27.0,30.06,WNW,285,1.2,0.0,88,0.00,CLR,OVC,0.44,0.0,WeatherDisplay:10.37,2013-12-05 20:21:00,
2013-12-05 20:26:00,30.2,27.1,30.06,WNW,285,1.2,0.0,88,0.00,CLR,OVC,0.44,0.0,WeatherDisplay:10.37,2013-12-05 20:26:00,
2013-12-05 20:31:00,30.2,27.1,30.06,WNW,285,0.0,0.0,88,0.00,CLR,OVC,0.44,0.0,WeatherDisplay:10.37,2013-12-05 20:31:00,
2013-12-05 20:36:00,30.1,27.0,30.06,WNW,285,0.0,0.0,88,0.00,CLR,OVC,0.44,0.0,WeatherDisplay:10.37,2013-12-05 20:36:00,
2013-12-05 20:41:00,29.9,26.8,30.06,WNW,285,0.0,0.0,88,0.00,CLR,OVC,0.44,0.0,WeatherDisplay:10.37,2013-12-05 20:41:00,
2013-12-05 20:46:00,30.0,27.2,30.06,WNW,285,1.2,0.0,89,0.00,CLR,OVC,0.44,0.0,WeatherDisplay:10.37,2013-12-05 20:46:00,
2013-12-05 20:51:00,30.0,26.9,30.06,WNW,285,0.0,0.0,88,0.00,CLR,OVC,0.44,0.0,WeatherDisplay:10.37,2013-12-05 20:51:00,
2013-12-05 20:56:00,29.9,27.1,30.07,WNW,285,0.0,0.0,89,0.00,CLR,OVC,0.44,0.0,WeatherDisplay:10.37,2013-12-05 20:56:00,
2013-12-05 21:01:00,29.9,27.1,30.06,NNW,336,2.3,2.3,89,0.00,CLR,OVC,0.44,0.0,WeatherDisplay:10.37,2013-12-05 21:01:00,
2013-12-05 21:06:00,30.4,27.8,30.07,WNW,297,1.2,1.2,90,0.00,CLR,OVC,0.44,0.0,WeatherDisplay:10.37,2013-12-05 21:06:00,
2013-12-05 21:12:00,30.8,28.2,30.07,NW,314,1.2,1.2,90,0.00,CLR,OVC,0.44,0.0,WeatherDisplay:10.37,2013-12-05 21:12:00,
2013-12-05 21:17:00,30.7,27.8,30.07,NW,305,1.2,1.2,89,0.00,CLR,OVC,0.44,0.0,WeatherDisplay:10.37,2013-12-05 21:17:00,
2013-12-05 21:22:00,30.7,27.8,30.07,WNW,301,1.2,1.2,89,0.00,CLR,OVC,0.44,0.0,WeatherDisplay:10.37,2013-12-05 21:22:00,
2013-12-05 21:27:00,30.8,27.9,30.07,NW,321,2.3,2.3,89,0.00,CLR,OVC,0.44,0.0,WeatherDisplay:10.37,2013-12-05 21:27:00,
2013-12-05 21:32:00,30.8,27.9,30.07,NW,309,2.0,2.0,89,0.00,CLR,OVC,0.44,0.0,WeatherDisplay:10.37,2013-12-05 21:32:00,
2013-12-05 21:37:00,30.8,27.9,30.08,West,273,2.3,2.3,89,0.00,CLR,OVC,0.44,0.0,WeatherDisplay:10.37,2013-12-05 21:37:00,
2013-12-05 21:42:00,30.7,27.8,30.08,NW,315,2.3,2.3,89,0.00,CLR,OVC,0.44,0.0,WeatherDisplay:10.37,2013-12-05 21:42:00,
2013-12-05 21:47:00,30.9,28.0,30.08,NW,305,2.3,2.3,89,0.00,CLR,OVC,0.44,0.0,WeatherDisplay:10.37,2013-12-05 21:47:00,
2013-12-05 21:52:00,31.1,28.0,30.07,NW,306,1.2,1.2,88,0.00,CLR,OVC,0.44,0.0,WeatherDisplay:10.37,2013-12-05 21:52:00,
2013-12-05 21:57:00,31.2,28.1,30.07,WNW,293,2.3,2.3,88,0.00,CLR,OVC,0.44,0.0,WeatherDisplay:10.37,2013-12-05 21:57:00,
2013-12-05 22:02:00,31.2,27.8,30.08,NW,316,3.0,3.0,87,0.00,CLR,OVC,0.44,0.0,WeatherDisplay:10.37,2013-12-05 22:02:00,
2013-12-05 22:07:00,31.4,28.0,30.08,NW,309,2.3,2.3,87,0.00,CLR,OVC,0.44,0.0,WeatherDisplay:10.37,2013-12-05 22:07:00,
2013-12-05 22:12:00,31.4,27.7,30.08,WNW,300,3.5,3.5,86,0.00,CLR,OVC,0.44,0.0,WeatherDisplay:10.37,2013-12-05 22:12:00,
2013-12-05 22:17:00,31.4,27.7,30.08,NW,311,2.3,2.3,86,0.00,CLR,OVC,0.44,0.0,WeatherDisplay:10.37,2013-12-05 22:17:00,
2013-12-05 22:22:00,31.3,27.6,30.09,NW,310,3.5,3.5,86,0.00,CLR,OVC,0.44,0.0,WeatherDisplay:10.37,2013-12-05 22:22:00,
2013-12-05 22:27:00,31.4,27.7,30.09,NW,306,3.5,3.5,86,0.00,CLR,OVC,0.44,0.0,WeatherDisplay:10.37,2013-12-05 22:27:00,
2013-12-05 22:32:00,31.7,28.0,30.09,NNW,328,3.5,3.5,86,0.00,CLR,OVC,0.44,0.0,WeatherDisplay:10.37,2013-12-05 22:32:00,
2013-12-05 22:37:00,31.7,27.7,30.09,NW,314,3.5,3.5,85,0.00,CLR,OVC,0.44,0.0,WeatherDisplay:10.37,2013-12-05 22:37:00,
2013-12-05 22:43:00,31.7,27.7,30.10,NW,311,2.3,2.3,85,0.00,CLR,OVC,0.44,0.0,WeatherDisplay:10.37,2013-12-05 22:43:00,
2013-12-05 22:48:00,31.6,27.6,30.10,NW,314,1.2,1.2,85,0.00,CLR,OVC,0.44,0.0,WeatherDisplay:10.37,2013-12-05 22:48:00,
2013-12-05 22:53:00,31.5,27.5,30.10,NW,319,1.2,1.2,85,0.00,CLR,OVC,0.44,0.0,WeatherDisplay:10.37,2013-12-05 22:53:00,
2013-12-05 22:58:00,31.6,27.3,30.10,NW,304,1.2,1.2,84,0.00,CLR,OVC,0.44,0.0,WeatherDisplay:10.37,2013-12-05 22:58:00,
2013-12-05 23:03:00,31.5,27.2,30.10,NW,305,1.2,1.2,84,0.00,CLR,OVC,0.44,0.0,WeatherDisplay:10.37,2013-12-05 23:03:00,
2013-12-05 23:08:00,31.4,26.8,30.10,NW,310,2.3,2.3,83,0.00,CLR,OVC,0.44,0.0,WeatherDisplay:10.37,2013-12-05 23:08:00,
2013-12-05 23:13:00,30.9,26.6,30.10,NW,310,1.2,1.2,84,0.00,CLR,OVC,0.44,0.0,WeatherDisplay:10.37,2013-12-05 23:13:00,
2013-12-05 23:18:00,30.5,26.5,30.10,NW,309,1.2,1.2,85,0.00,CLR,OVC,0.44,0.0,WeatherDisplay:10.37,2013-12-05 23:18:00,
2013-12-05 23:23:00,30.3,26.3,30.10,NW,308,1.2,0.0,85,0.00,CLR,OVC,0.44,0.0,WeatherDisplay:10.37,2013-12-05 23:23:00,
2013-12-05 23:28:00,30.5,26.5,30.10,NW,309,0.0,0.0,85,0.00,CLR,OVC,0.44,0.0,WeatherDisplay:10.37,2013-12-05 23:28:00,
2013-12-05 23:33:00,30.5,26.8,30.11,NW,314,1.2,1.2,86,0.00,CLR,OVC,0.44,0.0,WeatherDisplay:10.37,2013-12-05 23:33:00,
2013-12-05 23:38:00,30.7,26.7,30.10,NW,307,1.2,1.2,85,0.00,CLR,OVC,0.44,0.0,WeatherDisplay:10.37,2013-12-05 23:38:00,
2013-12-05 23:43:00,30.6,26.3,30.11,NW,304,1.2,0.0,84,0.00,CLR,OVC,0.44,0.0,WeatherDisplay:10.37,2013-12-05 23:43:00,
2013-12-05 23:48:00,30.4,26.1,30.11,NW,304,0.0,0.0,84,0.00,CLR,OVC,0.44,0.0,WeatherDisplay:10.37,2013-12-05 23:48:00,
2013-12-05 23:53:00,30.4,26.1,30.11,NW,304,0.0,0.0,84,0.00,CLR,OVC,0.44,0.0,WeatherDisplay:10.37,2013-12-05 23:53:00,
2013-12-05 23:58:00,30.5,26.2,30.11,NW,304,0.0,0.0,84,0.00,CLR,OVC,0.44,0.0,WeatherDisplay:10.37,2013-12-05 23:58:00,